Regional Weather Roundup
Issued by NWS Sterling, VA

Home | Current Version | Previous Version | Graphics & Text | Print | Product List | Glossary On
Versions: 1 2 3 4 5 6 7 8 9 10 11 12 13 14 15 16 17 18 19 20 21 22 23 24 25 26
686
ASUS41 KLWX 211810
RWRLWX

REGIONAL WEATHER ROUNDUP
NATIONAL WEATHER SERVICE BALTIMORE MD/WASHINGTON DC
200 PM EDT THU MAY 21 2015

Note: "FAIR" indicates few or no clouds below 12,000 feet
with no significant weather and/or obstructions to visibility.
 TC=TEMPERATURE CELSIUS

 * =Non NWS site. Station does not report precipitation (e.g. rain,
    snow, etc.), thunder, or fog.

DCZ001-MDZ009-015-VAZ040>042-051-053>054-211900-
WASHINGTON METRO

CITY           SKY/WX    TMP DP  RH WIND       PRES   REMARKS
WASHINGTON NAT LGT RAIN  53  48  83 E9        29.98F
DULLES         CLOUDY    51  48  89 E8        29.97F
ANDREWS AFB    LGT RAIN  49  48  98 NE10      29.96F
FT BELVOIR     DRIZZLE   51  49  93 VRB5      29.97F FOG
QUANTICO       RAIN      55  52  88 E13       29.96F FOG
COLLEGE PARK*  CLOUDY    50  48  93 NE5       29.98F
LEESBURG*      CLOUDY    52  52 100 E3        29.98F
GAITHERSBURG*  CLOUDY    48  45  87 E3        30.01F

$$

MDZ006>007-011-014-211900-
BALTIMORE METRO

CITY           SKY/WX    TMP DP  RH WIND       PRES   REMARKS
BWI AIRPORT    LGT RAIN  50  46  86 E7        29.98F FOG
MD SCIENCE CTR   N/A     50  46  86 MISG      29.99F
MARTIN STATE   LGT RAIN  52  48  87 E5        30.00F FOG
ANNAPOLIS      LGT RAIN  50  47  89 NE7       29.98F FOG
FORT MEADE*    CLOUDY    48  45  87 E6        30.01F

$$

MDZ012-015-019>023-211900-
MARYLAND EASTERN SHORE

CITY           SKY/WX    TMP DP  RH WIND       PRES   REMARKS
OCEAN CITY     LGT RAIN  56  52  86 NE6       29.95F
SALISBURY      RAIN      54  51  90 NE9       29.94F FOG
BAY BRIDGE AP* RAIN     N/A N/A N/A NE5       29.99F
CAMBRIDGE*     CLOUDY    52  50  93 NE7       29.97S
EASTON*        RAIN      50  50 100 NE7       30.03F

$$

MDZ017>025-211900-
SOUTHERN MARYLAND

CITY           SKY/WX    TMP DP  RH WIND       PRES   REMARKS
PATUXENT RIVER LGT RAIN  53  51  93 NE15      29.95F FOG
ST INIGOES     LGT RAIN  54  52  93 NE12      29.93F FOG
LEONARDTOWN*   CLOUDY    52  50  93 CALM      29.96F

$$

MDZ003>005-211900-
NORTH CENTRAL MARYLAND

CITY           SKY/WX    TMP DP  RH WIND       PRES   REMARKS
FREDERICK*     PTSUNNY   54  48  82 SE5       30.00F
HAGERSTOWN APT CLOUDY    54  46  74 S5        29.95F
WESTMINSTER*   CLOUDY    54  46  76 SE5       29.96F

$$

MDZ501>502-211900-
WESTERN MARYLAND

CITY           SKY/WX    TMP DP  RH WIND       PRES   REMARKS
OAKLAND*       CLOUDY    46 N/A N/A S3        29.92F
CUMBERLAND*    CLOUDY    52  48  87 CALM      29.99F

$$

VAZ025>031-211900-
SHENANDOAH VALLEY

CITY           SKY/WX    TMP DP  RH WIND       PRES   REMARKS
WINCHESTER*    CLOUDY    54  46  76 CALM      29.95F
FRONT ROYAL*   CLOUDY    52  50  93 CALM      29.94F
LURAY*         CLOUDY    55  54  94 N3        29.95F
NEW MARKET*    CLOUDY    52  50  94 CALM      29.95S
STAUNTON*      CLOUDY    54  50  87 NE5       29.96F
WAYNESBORO*    CLOUDY    52  50  90 N6        29.94F

$$

WVZ021-048>050-054>055-211900-
EASTERN WEST VIRGINIA PANHANDLE

CITY           SKY/WX    TMP DP  RH WIND       PRES   REMARKS
MARTINSBURG    CLOUDY    54  50  86 S5        29.96F FOG
PETERSBURG*    CLOUDY    53  48  81 CALM      29.95F

$$

VAZ036>039-050-211900-
CENTRAL FOOTHILLS

CITY           SKY/WX    TMP DP  RH WIND       PRES   REMARKS
CHARLOTTESVILL CLOUDY    53  50  89 N7        29.94S FOG
CULPEPER*      RAIN      53  52  95 N5        29.96F
ORANGE*        CLOUDY    55  54  94 N8        29.95F
GORDONSVILLE*  CLOUDY    54  52  93 NE7       29.93F
WARRENTON*     DRIZZLE   54  53  97 E7        29.95F

$$

VAZ055>057-211900-
NORTH AND CENTRAL PIEDMONT

CITY           SKY/WX    TMP DP  RH WIND       PRES   REMARKS
FREDERICKSBRG* RAIN      56  56 100 NE7       29.94F
STAFFORD*      RAIN      53  51  94 NE8       29.98F

$$

NCZ024-NYZ072-PAZ021-071-VAZ022-071-211900-
OTHER REGIONAL OBSERVATIONS

CITY           SKY/WX    TMP DP  RH WIND       PRES   REMARKS
NEW YORK CITY  CLOUDY    60  34  37 VRB5      29.99F
PHILADELPHIA   LGT RAIN  55  47  74 SW7       29.99F
PITTSBURGH     CLOUDY    54  43  66 NW7       29.95F
ROANOKE        CLOUDY    60  53  77 CALM      29.94F
RICHMOND       RAIN      57  54  89 N12       29.90F FOG
RALEIGH        CLOUDY    64  62  93 VRB5      29.85S FOG

$$

ANZ530>537-211900-
MARINE OBSERVATIONS

STATION/POSITION TIME  TEMP    WIND        PRES
                       AIR SEA DIR/SP/G
                 (UTC) (F)     (DEG/KT/KT) (MB)
THOMAS PT LIGHT  1800   49 67   60/ 12/ 13 1015.7F
BALT KEY BRIDGE  1700   51      80/  6/  8 1016.2F
COVE POINT       1700   52      80/ 12/ 14 1015.5F
LEWISETTA        1700   57 70              1013.7F
PINEY POINT      1700           70/  9/ 13   N/A

$$




USA.gov is the U.S. government's official web portal to all federal, state and local government web resources and services.